Burbank, CA

11:45 AM PST on January 18, 2017 (GMT -0800)
Burbank-Glendale-Pasadena

Weather History for KBUR - January, 2013

Change the Weather History Date:

Friday, January 11, 2013

  Actual Average Record
Temperature  
Mean Temperature 46 °F 55 °F  
Max Temperature 53 °F 68 °F 85 °F (1983)
Min Temperature 38 °F 42 °F 30 °F (1949)
Degree Days  
Heating Degree Days 19 10  
Month to date heating degree days 136 116  
Since 1 July heating degree days 593 683  
Cooling Degree Days 0 0  
Month to date cooling degree days 0 0  
Year to date cooling degree days 0 0  
Moisture  
Dew Point 20 °F    
Average Humidity 38    
Maximum Humidity 54    
Minimum Humidity 21    
Precipitation  
Precipitation 0.00 in 0.11 in 4.52 in (1995)
Month to date precipitation 0.06 1.22  
Year to date precipitation 0.06 1.22  
Since 1 July precipitation 2.86  
Sea Level Pressure  
Sea Level Pressure 30.10 in    
Wind  
Wind Speed 11 mph (NNW)    
Max Wind Speed 21 mph    
Max Gust Speed 29 mph    
Visibility 10 miles    
Events      
T = Trace of Precipitation, MM = Missing Value Source: NWS Daily Summary

Daily Weather History Graph

Daily Weather History Graph

Search for Another Location

Airport or City:

Trip Planner

Search our weather history database for the weather conditions in past years. The results will help you decide how hot, cold, wet, or windy it might be!

Date:

Astronomy

Jan. 11, 2013 Rise Set
Actual Time 6:59 AM PST 5:03 PM PST
Civil Twilight 6:32 AM PST 5:30 PM PST
Nautical Twilight 6:01 AM PST 6:01 PM PST
Astronomical Twilight 5:31 AM PST 6:32 PM PST
Moon 6:38 AM PST (1/11) 5:24 PM PST (1/11)
Length of Visible Light 10h 58m
Length of Day
10h 03m
New Moon, 0% of the Moon is Illuminated
Jan 11
New Moon
Jan 18
First Quarter
Jan 26
Full
Feb 3
Last Quarter
Feb 9
New

Hourly Weather History & Observations

Time (PST) Temp. Windchill Dew Point Humidity Pressure Visibility Wind Dir Wind Speed Gust Speed Precip Events Conditions
12:53 AM 44.1 °F 36.8 °F 23.0 °F 43% 30.07 in 10.0 mi NNW 16.1 mph 23.0 mph N/A   Clear
1:53 AM 44.1 °F 36.5 °F 21.9 °F 42% 30.09 in 10.0 mi North 17.3 mph - N/A   Clear
2:53 AM 44.1 °F 39.5 °F 21.0 °F 40% 30.11 in 10.0 mi North 8.1 mph - N/A   Clear
3:53 AM 43.0 °F 39.5 °F 21.0 °F 42% 30.12 in 10.0 mi NW 5.8 mph - N/A   Clear
4:53 AM 41.0 °F 39.0 °F 21.9 °F 47% 30.14 in 10.0 mi NW 3.5 mph - N/A   Clear
5:53 AM 39.9 °F 36.7 °F 23.0 °F 51% 30.15 in 10.0 mi NW 4.6 mph - N/A   Clear
6:53 AM 39.0 °F 34.0 °F 23.0 °F 53% 30.16 in 10.0 mi West 6.9 mph - N/A   Clear
7:53 AM 39.9 °F 36.7 °F 24.1 °F 53% 30.16 in 10.0 mi WNW 4.6 mph - N/A   Clear
8:53 AM 44.1 °F 40.1 °F 24.1 °F 45% 30.17 in 10.0 mi WSW 6.9 mph - N/A   Clear
9:25 AM 48.2 °F - 19.4 °F 32% 30.18 in 10.0 mi NNW 16.1 mph 20.7 mph N/A   Clear
9:53 AM 48.9 °F - 19.9 °F 32% 30.16 in 10.0 mi North 15.0 mph 23.0 mph N/A   Clear
10:53 AM 50.0 °F - 19.0 °F 29% 30.14 in 10.0 mi NW 13.8 mph 23.0 mph N/A   Clear
11:53 AM 51.1 °F - 19.0 °F 28% 30.10 in 10.0 mi NNW 11.5 mph - N/A   Clear
12:53 PM 52.0 °F - 19.0 °F 27% 30.07 in 10.0 mi NNW 13.8 mph 23.0 mph N/A   Partly Cloudy
1:53 PM 53.1 °F - 16.0 °F 23% 30.06 in 10.0 mi North 15.0 mph 25.3 mph N/A   Partly Cloudy
2:53 PM 52.0 °F - 17.1 °F 25% 30.05 in 10.0 mi NW 10.4 mph 19.6 mph N/A   Clear
3:53 PM 52.0 °F - 12.9 °F 21% 30.04 in 10.0 mi North 20.7 mph 26.5 mph N/A   Clear
4:53 PM 48.9 °F - 18.0 °F 29% 30.04 in 10.0 mi North 15.0 mph 23.0 mph N/A   Clear
5:53 PM 46.9 °F - 18.0 °F 32% 30.06 in 10.0 mi North 18.4 mph 24.2 mph N/A   Clear
6:53 PM 46.0 °F 42.5 °F 19.0 °F 34% 30.06 in 10.0 mi NW 6.9 mph - N/A   Clear
7:53 PM 45.0 °F 43.5 °F 19.0 °F 36% 30.06 in 10.0 mi NW 3.5 mph - N/A   Clear
8:53 PM 45.0 °F 41.8 °F 16.0 °F 31% 30.07 in 10.0 mi Variable 5.8 mph - N/A   Clear
9:53 PM 45.0 °F 39.3 °F 19.9 °F 37% 30.07 in 10.0 mi NNW 11.5 mph - N/A   Clear
10:53 PM 44.1 °F 39.0 °F 19.9 °F 38% 30.07 in 10.0 mi North 9.2 mph - N/A   Clear
11:53 PM 42.1 °F 37.1 °F 21.9 °F 45% 30.07 in 10.0 mi North 8.1 mph - N/A   Clear